Regional Weather Roundup
Issued by NWS

Home | Current Version | Previous Version | Graphics & Text | Print | Product List | Glossary On
Versions: 1 2 3 4 5 6 7 8 9 10 11 12 13 14 15 16 17 18 19 20 21 22 23 24 25 26 27 28 29 30 31 32 33 34 35 36 37 38 39 40 41 42 43 44 45 46 47 48 49 50
000
ASUS43 KFSD 050610
RWRSD

WEATHER ROUNDUP FOR SOUTH DAKOTA
NATIONAL WEATHER SERVICE SIOUX FALLS SD
100 AM CDT THU MAY 05 2016

NOTE: "FAIR" INDICATES FEW OR NO CLOUDS BELOW 12,000 FEET WITH NO
SIGNIFICANT WEATHER AND/OR OBSTRUCTIONS TO VISIBILITY.


SDZ001>005-009-010-012>017-050700-
NORTHWEST AND NORTH CENTRAL SOUTH DAKOTA

CITY           SKY/WX    TMP DP  RH WIND       PRES   REMARKS
BUFFALO          N/A     56  44  64 S8        29.92S
FAITH            N/A     51  44  77 S15       30.00S
MOBRIDGE       CLEAR     53  46  77 SE8       29.97S
$$

SDZ012>016-024>037-041>051-057-063-072>074-050700-
SOUTHWEST AND SOUTH CENTRAL SOUTH DAKOTA

CITY           SKY/WX    TMP DP  RH WIND       PRES   REMARKS
RAPID CTY ARPT CLEAR     50  42  74 SE8       30.02S
PIERRE         CLEAR     53  40  61 SE5       30.01S
CUSTER         CLEAR     54  35  48 S3        30.13F
ELLSWORTH AFB  CLEAR     56  44  64 S10       30.01F
PHILIP         CLEAR     57  43  59 S8        30.02R
PINE RIDGE     CLEAR     57  38  48 SW3       30.05S
WINNER         FAIR      54  38  54 S8        30.04F
$$

SDZ004>011-016>023-039-040-050700-
NORTHEAST SOUTH DAKOTA

CITY           SKY/WX    TMP DP  RH WIND       PRES   REMARKS
ABERDEEN       CLEAR     47  35  63 CALM      29.99S
WATERTOWN      CLEAR     48  37  65 SW3       30.01F
BROOKINGS      CLEAR     47  32  56 CALM      30.02S
SISSETON         N/A     47  34  60 SW7       29.98S
$$

SDZ017-020-022-023-036>040-048>070-050700-
SOUTHEAST SOUTH DAKOTA

CITY           SKY/WX    TMP DP  RH WIND       PRES   REMARKS
SIOUX FALLS    CLEAR     46  37  71 CALM      30.03S
HURON          CLEAR     50  42  74 CALM      30.02S
CHAMBERLAIN    CLEAR     54  45  71 SW3       30.03F
MITCHELL       CLEAR     52  41  66 CALM      30.03R
YANKTON        CLEAR     46  37  71 CALM      30.04R
$$

ABBREVIATIONS USED IN REMARKS
   TC - TEMPERATURE IN CELSIUS
  WCI - WIND CHILL INDEX
   HX - HEAT INDEX
  VSB - VISIBILITY




USA.gov is the U.S. government's official web portal to all federal, state and local government web resources and services.